Location: Grand Rapids
(42.9630°N, 85.6680°W)
Time: 03:11:24
(UTC-04:00)

A-11 Canister half - Pass Details

Date: 05 June 2024
Orbit: 1524 x 1684 km, 47.3° (Epoch: 21 June)

Event Time Altitude Azimuth Distance (km) Brightness Sun altitude
Rises 21:41:35 0° 273° (W) 4,673 12.6 -4.3°
Reaches altitude 10° 21:44:38 10° 276° (W) 3,696 12.1 -4.8°
Maximum altitude 21:53:56 68° 360° (N) 1,648 9.4 -6.1°
Drops below altitude 10° 22:03:29 10° 83° (E) 3,785 10.7 -7.4°
Sets 22:06:39 0° 86° (E) 4,791 11.2 -7.9°
